ECMWFFLT2_sfc_temp_021.txt.gz
Temp
77 78 78 78 77 76 75 73 72 71 70 70 71 71 70 72 72 73 74 73 72 77 77 77 76 79 75 77 73 73 74 74 74 74 73 73 74 74 74 72 72 71 71 70 71 70 70 71 70 70 71 72 72 77 78 78 77 78 78 78 77 79
77 77 77 77 77 76 76 75 75 72 74 73 72 71 72 75 73 76 74 74 76 77 78 78 77 75 77 76 76 72 73 74 74 74 73 73 73 73 73 72 71 71 70 69 68 76 74 71 70 71 71 71 76 78 77 77 77 78 78 78 78 76
78 77 77 78 77 77 77 77 76 75 74 73 73 74 73 75 77 77 77 78 75 77 79 79 78 77 77 75 77 73 73 74 73 73 73 73 73 72 72 71 71 70 69 68 75 76 76 77 76 69 71 75 77 77 77 77 77 78 78 79 79 73
77 78 77 77 77 77 76 75 74 73 73 74 74 74 73 73 75 77 77 76 74 76 78 77 75 75 74 76 76 72 73 74 73 73 73 74 73 72 71 71 70 69 69 73 76 78 79 77 77 77 76 76 77 76 76 77 78 78 79 78 80 71
78 77 77 77 77 75 74 74 74 73 72 73 73 73 74 73 74 76 76 76 76 75 78 76 76 76 76 76 76 76 76 76 77 78 73 77 77 79 75 76 73 71 71 72 75 76 77 77 76 76 76 76 75 76 77 77 78 79 79 79 78 70
77 77 76 76 76 76 74 73 72 74 74 74 74 72 73 74 74 74 74 75 74 73 73 75 76 75 76 75 75 75 76 76 76 77 77 77 77 77 76 75 73 72 71 72 73 75 77 77 77 76 77 75 76 75 77 78 79 78 79 79 77 70
75 75 75 77 76 76 74 73 73 73 74 73 74 73 73 74 74 74 74 72 71 71 72 74 74 75 75 75 75 75 75 76 76 77 77 77 76 76 76 75 74 72 72 73 74 76 76 77 76 77 77 77 76 77 76 78 79 78 79 78 76 69
74 74 74 76 75 73 73 72 72 74 74 74 74 74 73 74 74 73 74 73 73 72 71 72 74 74 74 74 73 75 75 74 77 76 77 76 75 76 75 75 73 71 73 74 75 76 77 78 77 76 77 77 76 76 76 78 79 78 79 78 78 73
74 74 74 74 73 72 72 73 74 74 73 73 73 73 74 73 73 73 73 74 74 71 72 73 72 73 73 72 72 72 70 70 73 75 74 74 74 73 73 74 73 73 74 74 74 74 76 78 77 77 77 78 78 77 76 76 78 78 79 79 78 77
73 73 72 72 71 71 72 71 72 72 74 74 72 72 72 72 72 72 72 74 74 73 73 72 72 72 72 70 71 71 71 71 69 70 70 73 73 73 72 72 72 73 75 74 75 74 75 77 78 77 78 78 78 79 78 78 78 79 80 78 77 78
72 71 71 71 70 71 71 71 71 71 73 73 72 71 70 70 71 72 73 73 73 72 69 68 68 68 68 64 66 67 69 70 68 69 70 74 74 72 72 73 73 74 73 72 74 74 75 76 77 79 78 79 79 79 79 79 79 79 80 79 79 78
70 70 70 71 70 71 71 72 72 72 72 73 71 70 70 70 70 70 68 68 69 68 67 67 67 66 65 66 66 66 66 67 68 68 69 71 72 71 72 72 74 73 71 71 72 73 74 75 76 79 79 79 80 79 80 79 80 79 79 79 79 78
69 69 70 70 70 71 72 74 72 73 73 71 70 69 69 70 69 69 69 69 67 69 68 68 67 67 65 65 66 67 67 68 69 67 68 69 71 72 72 72 72 73 72 72 72 72 73 73 74 76 77 79 79 80 81 81 79 79 79 79 79 79
68 69 68 69 70 72 71 71 73 73 73 72 70 70 70 70 69 69 69 68 69 69 67 68 69 68 67 66 67 68 66 66 67 68 67 67 69 70 72 73 74 74 73 73 72 70 72 73 75 76 77 78 79 78 79 81 80 79 78 79 80 78
67 68 67 69 70 71 70 72 73 73 72 72 71 72 72 72 72 73 72 69 70 69 69 68 69 69 70 70 70 68 67 67 68 68 67 67 68 69 71 71 72 73 72 72 72 73 71 72 73 73 74 75 78 81 78 78 79 79 79 78 77 79
68 69 69 69 69 70 70 70 72 71 72 71 72 73 73 73 75 74 74 73 72 72 70 70 70 70 67 68 67 67 66 68 68 66 66 66 68 68 70 71 70 70 69 72 73 72 72 72 72 73 73 74 75 76 78 79 78 79 80 79 80 78
69 70 69 68 68 68 69 69 70 69 69 70 71 71 73 73 74 74 74 74 72 72 72 71 71 71 68 67 66 68 68 68 69 68 67 66 67 69 70 70 69 69 69 68 70 72 73 73 72 72 73 74 75 74 76 78 79 78 79 76 78 79
69 69 68 68 68 68 69 69 69 70 69 70 70 72 73 74 73 74 73 72 71 72 71 71 71 70 68 68 68 68 69 69 68 67 69 68 68 68 68 68 68 68 69 68 66 68 69 72 73 73 73 74 74 75 75 76 78 77 78 79 78 78
67 67 67 67 67 67 67 68 68 69 69 69 70 71 72 73 72 72 71 70 70 69 69 70 70 71 70 68 68 68 68 69 69 68 68 68 69 68 68 68 67 67 68 69 67 66 67 67 69 72 72 74 74 73 74 75 76 77 79 79 81 79
67 67 67 67 69 70 70 70 69 69 69 69 70 71 71 72 71 71 71 71 71 70 72 71 71 70 70 70 69 68 69 69 69 69 69 68 67 68 67 67 65 66 66 66 67 67 65 64 64 65 67 70 72 71 73 73 74 76 78 78 78 79
66 67 69 69 69 70 69 68 69 69 68 68 70 69 69 70 70 70 70 72 71 72 71 71 71 70 69 69 70 69 69 69 70 69 68 67 67 68 68 68 65 65 65 65 66 66 65 64 63 62 64 69 70 73 72 71 73 74 76 78 78 77
66 67 69 69 69 69 70 72 71 70 69 69 70 70 69 69 68 68 69 69 70 71 71 71 70 70 70 70 70 69 69 69 70 69 68 68 67 67 68 67 66 64 65 64 65 67 65 63 60 60 59 61 67 72 71 70 73 76 76 77 77 76
66 67 68 68 69 69 68 67 70 68 70 68 67 67 70 69 69 70 67 69 69 69 70 71 70 71 70 70 70 69 69 69 70 70 69 68 67 66 67 66 66 65 63 65 64 65 65 64 61 61 61 60 59 60 66 71 72 73 75 76 77 78
66 67 67 67 68 67 66 65 66 67 67 69 68 66 67 67 68 69 68 68 69 68 69 70 71 72 70 70 69 69 69 69 68 69 69 67 67 67 67 66 65 65 66 62 63 63 66 66 64 62 58 59 59 59 56 62 65 70 73 74 74 76
66 66 67 67 67 67 67 66 66 66 68 66 67 68 68 67 68 68 68 68 67 68 69 69 69 70 71 69 69 69 69 68 68 68 69 68 67 66 68 68 67 66 65 64 63 63 63 64 65 65 62 59 57 57 58 60 62 67 71 73 73 75
67 67 67 67 67 68 69 67 66 66 65 66 65 65 65 65 66 67 67 67 68 69 69 68 69 70 70 69 68 68 68 69 68 68 68 68 68 67 66 66 66 66 65 65 64 63 61 63 63 63 64 64 62 59 59 61 61 59 68 70 71 74
67 67 67 66 67 69 68 68 67 68 68 67 66 66 67 67 68 67 67 67 67 67 69 68 68 69 69 69 68 68 68 68 68 67 67 67 66 66 66 65 67 67 65 65 65 63 62 62 64 63 64 64 64 63 63 61 58 60 59 64 69 69
67 67 66 66 67 69 68 68 67 67 67 67 68 67 65 66 66 67 67 66 67 67 68 69 68 68 69 68 68 67 67 67 67 68 68 67 66 66 66 66 65 65 65 65 64 62 62 63 62 62 63 64 64 65 65 65 65 60 59 58 61 67
66 67 66 65 66 68 69 68 67 67 66 67 66 67 67 67 66 66 66 66 67 67 67 67 69 68 68 68 68 67 67 67 66 67 68 67 66 66 65 64 64 64 63 63 63 62 62 62 62 60 62 63 64 64 66 65 66 65 61 59 60 61
66 67 66 65 66 66 68 68 67 66 66 65 65 65 67 66 65 65 66 65 66 67 67 67 66 68 67 68 67 68 67 66 65 66 66 66 65 64 63 63 63 63 63 62 62 62 61 61 62 62 62 62 62 62 64 64 64 64 64 63 58 59
66 67 66 65 66 66 66 67 68 67 66 66 64 65 65 64 65 65 65 65 66 67 67 67 66 66 66 67 66 67 66 66 66 66 66 66 65 65 64 63 63 63 62 62 62 61 60 60 61 61 61 62 61 59 58 58 59 61 61 61 61 62
66 66 65 65 65 65 66 66 67 67 67 67 65 65 66 65 65 65 65 65 66 66 66 66 66 66 65 66 66 66 65 65 65 65 65 65 65 65 65 65 64 63 62 62 62 61 61 59 59 60 60 61 61 61 60 59 59 60 60 60 58 58
65 66 65 65 64 65 65 65 66 66 67 67 66 66 67 67 66 66 66 65 65 66 66 65 65 65 65 65 66 65 65 65 65 65 65 65 64 65 65 64 64 63 62 62 62 61 60 59 59 59 59 60 61 62 61 61 60 59 60 60 59 58
66 65 65 65 65 65 65 65 66 66 66 67 66 66 67 68 66 68 67 66 66 66 66 66 66 66 66 66 67 66 66 66 66 65 65 64 64 65 64 65 64 63 62 62 62 61 61 60 60 59 61 60 60 61 61 61 60 60 59 58 58 57
65 65 65 64 64 65 65 65 65 66 66 67 67 67 67 68 67 66 66 66 66 67 67 68 67 67 66 66 66 66 65 65 65 65 65 64 64 64 64 65 64 62 63 63 62 62 61 60 59 59 59 60 60 60 61 62 62 61 60 58 58 58
65 65 65 64 64 65 65 66 65 64 65 65 67 67 67 67 67 66 66 66 66 66 67 67 67 67 65 66 65 65 65 65 65 65 65 64 64 65 64 64 64 63 62 63 61 61 61 61 59 59 59 59 60 60 60 61 62 61 61 60 59 59
64 65 65 65 65 65 65 65 64 64 65 64 65 65 66 65 65 65 66 66 67 66 66 66 65 65 65 66 66 65 65 64 64 64 64 64 64 65 64 64 63 62 62 63 62 61 61 61 61 61 60 59 59 60 60 60 61 61 60 60 61 60

ECMWFFLT2_sfc_temp_024.txt.gz
Temp
84 84 82 78 76 78 76 73 73 71 71 71 72 72 72 72 73 74 75 74 72 78 77 78 77 79 74 78 74 73 74 74 74 74 74 74 74 73 73 72 72 72 71 71 71 70 70 71 71 71 72 72 72 78 82 82 83 84 86 85 83 84
84 84 84 78 78 77 76 76 79 76 77 75 74 74 76 78 77 80 74 74 76 74 75 79 78 76 77 78 77 73 73 74 74 74 74 74 74 73 73 72 72 71 71 71 70 80 77 71 69 71 73 72 78 83 82 83 83 86 85 84 84 76
86 84 83 84 78 78 78 80 81 79 77 75 78 78 80 79 81 80 79 80 79 77 76 75 76 76 77 75 76 72 73 74 74 74 73 73 73 73 72 71 71 71 70 69 77 83 85 86 81 69 71 77 83 83 82 82 82 85 85 85 84 72
85 84 83 83 83 77 78 79 79 79 79 78 79 80 80 82 78 77 77 78 79 79 76 76 74 73 71 76 76 73 72 74 73 73 72 75 72 73 72 71 71 70 72 78 83 85 85 85 85 83 83 84 85 84 82 81 83 85 86 85 85 71
87 84 84 82 83 82 77 76 76 80 80 79 80 81 81 80 80 79 79 75 83 79 81 80 77 79 77 76 75 80 80 80 80 80 73 80 80 79 76 79 77 77 81 81 82 83 84 84 82 83 83 84 84 83 83 82 83 84 85 84 79 71
86 86 83 83 82 81 80 79 79 80 80 79 79 79 80 79 80 80 81 81 81 78 78 75 74 75 78 80 81 82 82 83 82 82 81 81 83 81 81 83 80 80 80 81 80 81 82 82 82 83 85 83 83 82 83 84 83 82 84 84 77 72
84 84 83 85 84 82 82 80 79 79 80 79 80 79 79 78 81 80 79 80 78 77 76 79 80 80 81 82 82 82 83 83 82 82 82 82 81 81 82 82 81 79 79 80 81 81 81 82 82 84 83 85 84 84 83 83 83 83 84 84 76 71
84 83 82 85 83 81 82 81 79 78 80 79 78 78 80 81 80 79 79 78 78 79 77 78 79 80 81 81 81 81 82 82 83 82 81 81 80 80 82 82 80 80 79 80 81 81 83 85 82 82 84 83 83 83 83 83 83 83 84 84 81 73
83 82 82 83 82 82 81 81 81 81 81 77 80 79 78 78 79 78 77 76 78 75 77 78 79 80 82 80 80 79 78 77 77 79 77 76 80 78 79 81 80 80 79 80 81 80 82 84 82 82 83 84 83 84 83 82 82 83 84 85 85 78
82 83 82 82 81 81 81 80 80 80 81 80 81 79 77 77 77 78 72 72 73 76 77 76 78 79 80 78 78 77 76 77 76 76 73 75 78 78 79 81 81 80 82 79 80 80 81 82 84 83 84 84 84 84 83 83 83 84 85 84 84 80
84 80 81 82 80 79 80 80 81 82 80 81 80 78 77 76 77 73 75 75 71 68 67 69 72 73 73 74 76 76 76 75 76 75 75 73 73 78 79 78 77 80 82 81 79 81 81 81 83 86 85 85 85 84 84 84 85 86 86 85 85 84
82 78 79 82 79 80 79 81 80 81 80 79 78 77 76 75 76 77 75 68 71 70 70 71 73 74 73 72 72 73 74 75 75 75 74 74 76 78 79 76 78 78 78 81 76 79 79 81 82 85 86 86 86 84 84 83 85 86 86 86 86 85
80 78 78 79 80 80 80 82 80 80 80 78 78 77 78 77 75 74 74 72 72 72 70 73 73 74 73 74 74 74 74 74 74 72 70 70 73 76 77 75 76 77 75 75 74 75 79 79 81 82 83 86 85 86 87 87 84 85 85 86 86 86
78 78 77 79 78 81 80 80 81 81 79 79 79 79 76 76 75 76 74 72 73 71 71 71 74 74 75 75 75 75 74 73 74 72 71 71 70 75 77 78 79 78 76 76 74 75 75 76 79 81 81 83 84 83 85 87 85 84 84 85 86 85
76 77 77 77 77 79 79 80 82 81 79 79 78 78 78 78 76 73 75 73 74 72 73 72 74 74 74 75 76 75 74 73 73 74 72 72 71 74 75 76 78 78 76 76 78 77 76 75 74 76 79 80 82 84 83 84 85 85 86 84 84 85
76 76 76 76 77 77 77 78 79 78 79 78 80 80 80 80 80 81 80 78 76 75 74 75 75 76 74 76 76 76 74 75 74 74 72 72 73 74 76 76 77 78 74 75 76 76 77 75 74 74 77 78 79 80 82 84 83 86 87 86 86 84
75 76 77 77 77 77 77 78 78 78 78 78 79 80 80 80 81 80 80 79 78 76 77 77 77 77 75 75 76 75 75 75 76 74 73 73 73 74 75 75 75 76 76 75 76 75 74 75 75 74 77 77 79 79 80 81 82 83 86 84 84 86
77 78 77 77 77 77 77 77 78 79 78 78 78 80 81 81 80 80 80 78 77 78 76 76 77 77 76 77 76 75 75 75 75 74 73 74 74 76 75 75 74 75 77 75 76 74 73 74 76 76 76 77 77 78 79 80 81 82 84 84 83 84
77 77 77 76 76 76 76 77 78 77 77 77 78 79 79 79 80 79 78 77 78 76 77 77 77 77 77 77 77 75 74 74 75 74 73 74 74 74 74 73 73 73 74 76 76 74 73 71 73 77 78 78 78 79 79 80 81 81 82 83 84 85
76 76 76 76 77 78 78 77 76 77 77 78 79 78 78 79 79 79 77 77 77 76 78 77 77 77 76 77 76 76 75 74 74 73 73 72 71 71 71 71 72 72 71 73 74 73 72 69 68 69 70 75 78 79 79 79 80 81 82 82 83 84
76 76 77 77 78 78 77 77 77 76 75 77 77 76 76 77 78 77 77 78 77 77 76 76 76 77 76 75 77 77 76 75 76 75 73 72 70 70 71 71 71 71 70 68 68 70 70 71 67 67 68 70 71 75 78 77 79 81 82 82 83 82
76 76 77 77 78 77 78 78 77 77 78 78 77 77 76 76 75 75 75 75 76 76 76 76 76 76 76 77 76 76 75 75 75 75 74 74 72 71 71 70 71 69 69 65 66 67 68 68 65 65 63 63 66 66 67 75 78 79 81 83 81 80
76 76 77 77 78 77 77 77 78 77 78 77 78 77 78 76 76 77 74 75 75 75 76 76 76 76 76 76 76 76 75 76 75 74 73 71 72 71 71 71 72 71 69 69 68 68 66 68 64 65 64 61 59 59 66 66 72 77 78 80 82 82
76 76 76 77 77 77 77 76 77 77 76 77 76 75 74 75 75 75 74 75 75 75 75 76 77 78 77 76 75 75 76 76 74 75 74 72 71 71 70 70 71 70 71 67 68 67 68 67 66 65 60 60 60 60 57 60 64 74 78 79 79 80
76 76 76 76 76 76 75 74 75 74 75 74 74 74 74 74 74 74 74 74 74 75 75 76 76 77 77 75 75 75 75 74 74 74 75 74 73 72 74 74 71 70 70 68 68 68 69 68 66 66 63 60 58 57 58 60 64 67 71 76 80 81
77 76 76 75 75 76 75 74 73 72 71 72 71 71 72 71 72 73 74 73 75 75 75 75 76 76 77 76 74 74 74 75 74 74 75 75 75 74 73 73 74 73 70 68 69 68 67 67 66 65 66 64 63 59 59 61 61 59 66 67 69 72
77 76 76 76 75 75 74 75 73 74 74 73 73 73 75 74 74 74 74 73 73 74 75 74 74 75 75 75 74 75 74 74 74 73 74 74 73 72 73 73 75 74 74 73 71 68 66 67 67 66 66 66 64 64 64 61 59 61 60 62 64 65
77 77 76 76 75 75 75 75 74 74 75 75 75 73 73 74 74 74 73 72 73 73 74 75 74 75 75 74 74 73 73 73 74 74 74 74 72 73 72 72 71 72 72 72 71 70 69 70 67 66 68 66 66 65 65 65 64 60 60 59 60 65
76 76 76 75 75 75 76 75 75 75 74 76 75 75 75 75 74 74 72 73 73 74 73 74 75 74 74 75 74 73 73 73 73 73 75 74 73 73 71 70 70 70 70 70 70 70 70 69 68 66 67 66 68 69 68 67 67 66 62 59 60 61
75 76 76 74 75 75 75 76 75 75 74 74 75 75 76 73 73 73 72 71 72 73 73 73 73 74 74 75 74 74 73 72 72 73 73 72 71 70 70 69 69 69 69 68 69 69 68 69 70 69 70 68 67 68 69 68 67 67 67 67 62 60
75 76 76 74 74 74 75 75 75 75 74 73 73 73 73 71 73 72 72 71 72 73 73 73 73 72 73 74 73 73 72 72 72 72 72 72 71 71 70 69 69 68 68 68 68 67 67 67 68 68 68 69 68 67 66 65 65 66 66 65 66 67
74 75 75 74 74 74 75 75 75 75 74 74 73 73 72 71 72 71 72 72 73 73 73 73 72 72 72 72 72 72 72 72 72 71 71 72 72 72 71 71 70 69 68 68 68 68 67 66 66 67 66 68 68 68 67 66 67 66 65 66 65 65
74 74 75 74 73 74 74 74 75 75 75 75 74 74 73 73 73 73 73 73 73 73 73 72 72 71 71 71 72 71 71 71 71 71 71 71 71 71 71 71 69 69 68 68 68 67 66 65 65 66 66 67 69 69 67 67 66 65 66 66 65 64
74 74 75 74 74 73 74 74 75 75 75 76 75 74 75 75 74 75 75 74 73 74 73 72 72 71 72 72 73 72 72 72 72 71 71 70 70 71 71 72 70 68 67 68 67 66 66 65 65 65 67 67 68 68 67 67 67 66 64 64 64 64
74 74 74 74 74 73 74 74 75 75 76 76 75 76 76 76 75 75 75 74 74 75 74 74 74 73 73 72 72 72 72 71 71 70 70 69 70 70 70 71 71 68 69 68 67 67 66 65 64 64 64 66 66 67 67 69 68 67 68 64 63 63
74 74 74 74 74 74 74 75 74 74 74 75 76 76 77 77 76 76 75 75 74 74 75 75 75 74 72 73 72 71 71 71 71 70 70 70 70 70 69 69 69 68 67 69 66 65 66 65 64 64 64 65 67 67 67 67 68 67 68 67 65 64
73 73 73 73 73 74 74 74 74 74 74 74 74 74 75 75 75 75 75 75 75 75 75 75 74 74 72 73 72 72 71 71 70 70 70 70 70 70 69 70 69 68 67 68 68 67 67 66 65 65 65 63 65 66 66 66 67 67 66 66 68 67

ECMWFFLT2_sfc_temp_030.txt.gz
Temp
79 78 79 78 77 76 75 74 74 74 74 75 76 76 76 75 74 73 71 71 72 73 74 74 73 75 75 75 73 73 74 74 74 75 75 75 75 74 74 74 73 73 73 73 73 72 72 73 73 73 73 72 73 71 73 76 78 80 78 75 74 74
78 75 76 76 75 76 75 76 75 75 74 74 74 75 75 75 75 71 71 71 71 71 72 74 74 76 74 74 74 73 74 75 74 74 74 74 74 74 74 74 73 73 73 72 72 71 72 72 72 73 73 72 71 72 74 76 77 79 77 75 74 73
75 76 75 75 75 76 76 76 76 76 76 74 75 76 74 73 75 72 70 71 71 71 72 73 73 75 75 74 74 73 74 74 74 75 74 74 74 73 73 73 72 72 72 72 72 71 73 73 71 72 72 71 71 73 76 76 76 76 77 75 73 74
76 75 76 75 76 75 75 75 74 75 75 74 73 75 71 71 70 73 72 70 71 72 72 71 76 77 76 74 73 72 73 74 74 74 74 74 74 73 73 72 72 72 71 73 73 74 76 76 73 71 71 72 73 75 77 76 76 79 75 76 74 73
78 77 76 74 75 72 75 75 74 73 75 75 74 69 69 68 70 71 71 70 71 73 74 73 73 73 74 74 73 72 72 73 73 73 73 73 73 74 72 73 72 71 71 72 74 75 76 75 73 73 73 74 75 77 77 76 76 77 75 74 72 73
78 76 75 75 76 77 75 75 74 74 75 74 72 67 68 68 69 71 71 72 72 72 72 71 73 72 73 73 73 73 73 74 73 73 73 74 74 73 72 75 74 72 72 74 75 75 76 75 75 74 75 76 77 77 77 76 77 76 74 72 72 73
79 78 76 77 77 77 76 75 74 74 74 72 71 68 68 67 68 70 72 72 71 71 71 70 71 72 73 73 73 72 72 71 70 70 72 73 74 74 74 74 74 74 74 76 78 78 77 77 77 77 75 77 77 78 76 78 77 76 73 72 72 72
78 78 77 79 77 76 75 74 73 73 71 72 72 72 71 70 70 70 73 73 74 73 71 71 71 72 73 71 70 70 70 70 70 69 70 72 72 73 74 75 75 76 77 78 78 78 77 78 77 76 75 76 77 77 77 78 77 76 74 73 72 72
78 78 78 79 77 77 75 72 71 71 70 72 71 69 71 71 70 71 72 73 74 72 72 71 71 72 72 69 68 67 70 69 70 71 72 72 72 72 74 75 74 74 76 76 76 75 77 78 76 76 76 76 76 78 77 77 77 77 75 74 72 72
77 78 77 79 77 75 74 72 70 70 70 72 70 70 70 71 71 72 72 73 74 72 71 70 72 71 70 70 70 69 69 69 69 71 70 70 71 72 72 73 68 68 73 75 76 76 75 76 79 77 77 76 76 77 76 77 77 77 77 75 73 71
84 78 78 78 76 75 74 72 72 71 72 71 70 72 72 73 71 72 72 73 71 71 72 73 71 70 70 69 68 69 68 69 69 69 69 69 69 71 73 71 71 69 69 71 73 75 74 75 77 81 79 78 77 76 78 78 78 79 79 76 74 71
81 79 80 80 78 75 75 74 73 72 72 72 71 70 72 71 70 73 74 73 71 71 73 71 71 71 70 69 69 68 68 69 69 69 68 67 68 68 70 71 69 69 69 69 70 71 73 74 75 78 80 79 79 76 77 76 79 80 79 77 74 73
80 79 79 79 79 79 78 76 73 72 74 73 72 70 71 70 72 74 73 74 73 74 73 73 71 72 71 72 71 69 69 70 69 69 69 67 67 67 67 68 71 71 72 72 71 72 73 71 73 75 78 81 78 79 80 78 77 78 79 78 75 74
79 79 78 78 77 79 79 79 78 75 75 74 70 69 70 69 71 73 73 74 73 73 73 73 71 72 71 70 70 69 68 68 69 69 68 66 66 66 66 68 68 66 70 72 70 70 68 70 72 75 76 79 78 75 76 79 77 77 76 78 77 75
77 77 78 77 78 78 78 79 79 77 76 75 73 69 70 67 69 72 71 72 72 72 74 72 72 67 69 70 70 67 67 68 68 68 66 66 65 66 66 68 68 68 70 71 73 72 70 70 70 73 74 75 76 78 76 77 77 78 78 77 77 76
76 76 76 76 76 76 77 76 76 78 76 77 76 76 74 72 73 73 71 72 73 73 74 75 74 69 70 70 70 68 67 67 66 66 67 67 66 66 66 67 69 69 67 71 72 71 70 69 69 71 73 72 73 74 74 75 77 79 81 79 78 76
76 76 76 76 76 76 76 76 76 76 77 77 77 76 76 75 74 73 72 73 73 73 75 73 72 70 69 68 67 67 66 67 66 65 66 67 67 68 67 67 67 69 69 68 69 73 71 69 71 71 73 72 73 73 73 73 75 75 80 77 78 79
76 76 75 75 75 75 76 76 75 75 77 76 77 77 77 78 75 75 74 74 75 75 75 76 75 72 68 69 68 67 66 67 66 66 67 66 66 67 67 65 66 68 68 66 66 66 65 65 68 70 68 70 70 71 71 72 73 73 74 77 76 77
75 75 75 75 75 75 75 74 74 75 74 75 75 75 76 75 75 75 74 75 75 74 75 75 76 75 72 72 69 67 66 67 67 67 66 67 67 68 67 66 67 67 68 67 65 65 65 64 65 65 66 68 69 70 70 70 71 72 73 74 76 78
75 75 75 74 75 74 75 73 73 75 75 74 74 74 74 75 75 74 75 74 74 73 75 74 74 74 73 72 72 70 68 68 67 67 66 65 65 66 67 66 65 66 66 65 66 66 65 65 64 64 63 65 67 68 68 69 70 72 71 73 74 74
74 74 74 74 74 74 73 73 73 73 71 73 73 73 73 73 73 73 73 76 75 74 74 73 73 74 73 74 72 72 72 71 70 68 66 65 66 67 67 66 66 66 66 65 64 65 65 64 63 62 64 65 65 69 68 68 69 70 72 71 72 72
74 74 74 74 74 74 75 73 73 73 72 73 73 72 71 71 72 73 73 72 72 73 73 73 73 74 72 73 72 71 71 71 70 68 68 68 67 66 66 66 66 64 65 65 64 65 64 62 61 60 59 60 64 66 67 67 68 68 71 73 73 71
74 74 74 75 74 74 74 74 74 74 74 73 74 73 74 73 73 74 72 73 72 73 73 73 73 72 73 73 72 72 71 71 71 70 68 67 66 66 65 66 66 64 62 65 64 66 65 65 61 61 61 59 58 58 62 63 66 68 70 72 72 72
73 74 74 75 75 74 74 74 74 74 73 73 71 72 72 72 72 73 72 72 72 72 73 73 76 77 74 72 71 70 70 70 70 71 69 66 66 66 65 64 64 64 64 63 63 63 65 64 63 61 57 57 58 58 56 58 61 65 68 69 70 71
74 74 74 74 74 73 73 73 72 72 72 70 71 70 70 70 71 71 71 70 71 73 73 73 73 74 75 71 70 70 71 70 69 70 70 69 69 68 67 67 66 64 64 63 62 63 63 64 63 64 61 57 56 55 57 58 61 62 66 66 69 70
74 74 74 74 73 73 72 70 69 68 66 67 66 67 67 67 69 69 69 71 73 73 73 72 73 73 73 72 70 70 70 70 69 68 68 68 68 69 68 68 68 66 65 64 63 61 61 63 63 63 64 62 60 57 57 59 60 56 64 65 66 69
74 74 74 74 73 72 71 71 70 70 68 68 67 69 69 70 69 69 71 70 70 71 73 71 71 71 71 71 70 70 69 70 70 70 70 68 67 67 68 68 68 68 67 65 64 61 62 62 62 62 62 63 62 62 61 58 56 58 56 59 63 64
74 74 74 74 73 72 71 70 70 70 70 69 69 68 69 70 70 70 69 70 70 70 72 72 71 72 72 71 70 69 70 68 69 72 70 68 66 67 68 68 67 68 67 66 66 64 63 64 62 60 63 61 60 61 62 61 62 59 56 55 58 63
74 74 73 73 72 72 72 71 70 71 69 71 70 70 71 71 69 70 69 70 70 70 70 71 72 71 70 71 70 69 68 68 67 68 70 69 67 68 66 65 65 65 64 65 65 65 64 64 65 63 63 61 62 61 61 60 60 60 58 55 55 58
74 74 73 72 72 72 72 71 70 70 70 69 69 70 70 69 68 69 69 69 69 69 68 68 70 70 69 71 70 69 68 68 67 68 68 68 67 66 65 65 65 64 65 64 64 64 63 63 64 64 64 64 63 63 62 61 61 60 61 60 56 57
74 74 73 72 72 71 72 72 71 71 70 70 69 69 68 67 68 68 67 68 68 69 69 68 68 69 69 69 68 68 68 68 69 68 68 69 66 67 66 66 65 65 65 64 63 63 63 63 63 62 63 62 61 62 61 60 60 61 61 60 59 60
73 73 73 72 72 72 72 71 71 71 71 70 70 70 68 68 68 68 67 67 68 68 68 68 68 68 67 68 67 68 69 68 68 68 67 68 68 68 67 67 65 65 65 65 64 64 63 61 62 62 61 62 62 63 62 61 61 61 60 59 59 58
73 73 72 72 71 71 71 71 71 71 71 71 70 70 69 68 68 68 68 67 67 67 67 67 67 67 67 68 67 67 67 66 66 66 67 67 67 67 66 66 66 65 64 63 63 62 61 60 61 61 61 64 63 64 62 62 62 61 61 60 60 57
73 73 73 72 72 71 71 71 72 72 71 71 70 70 70 69 69 69 69 68 68 68 67 66 67 66 67 68 68 68 69 67 67 67 67 67 67 68 68 67 66 64 64 64 65 63 62 62 61 62 63 61 62 62 61 63 62 62 61 60 57 56
73 73 72 72 71 71 71 72 72 72 72 71 70 70 70 70 70 69 69 69 69 69 68 68 68 68 69 68 68 68 68 67 67 67 67 67 68 67 66 68 66 65 64 64 64 63 62 62 62 62 61 61 63 61 61 62 61 62 63 61 60 58
73 73 73 72 71 71 71 72 72 71 71 71 71 71 71 71 70 71 70 70 69 70 70 69 69 69 68 68 68 68 68 67 67 67 66 67 67 66 67 66 64 64 64 67 63 63 62 62 62 61 61 62 62 61 62 62 63 61 61 61 61 61
69 73 73 72 72 72 71 71 71 72 72 71 71 70 70 70 70 71 72 71 70 71 72 70 70 69 68 68 68 67 67 67 66 66 66 66 67 66 65 66 65 64 63 65 64 64 64 63 62 63 61 63 62 61 61 62 61 62 61 61 61 60

ECMWFFLT2_sfc_temp_033.txt.gz
Temp
73 73 73 72 72 72 74 75 74 74 75 74 73 73 73 73 72 72 73 72 72 70 70 70 72 71 74 72 72 73 74 75 75 75 75 75 75 74 74 74 73 73 73 72 72 72 72 73 73 73 73 73 73 67 68 69 71 72 72 72 71 71
73 73 73 73 73 72 72 73 72 72 73 73 73 73 71 69 73 69 72 70 69 70 69 69 69 75 71 72 73 73 74 74 74 75 74 74 74 74 74 74 73 72 72 72 72 68 68 71 72 72 73 73 69 67 68 69 70 72 72 70 70 72
73 73 72 73 72 72 72 71 71 72 73 73 73 72 69 70 67 68 68 68 69 68 69 70 70 73 72 73 72 73 74 74 74 74 74 73 74 73 73 73 72 72 71 71 69 66 66 66 66 72 73 70 67 66 69 70 70 71 71 70 70 74
73 72 72 71 72 71 71 71 70 71 70 69 68 69 68 68 68 67 68 67 67 69 69 67 73 74 76 71 71 72 73 74 74 74 74 73 74 73 73 73 72 72 71 70 67 67 68 67 66 66 66 66 67 68 69 70 71 72 71 73 72 73
73 73 72 71 71 70 70 70 70 70 69 68 67 66 67 66 66 68 67 67 67 69 69 67 68 70 69 70 69 69 70 69 69 69 72 68 68 71 70 69 68 68 65 66 67 67 68 68 69 68 67 66 68 70 70 71 72 71 71 71 71 73
73 73 72 70 70 72 71 69 69 70 69 67 66 65 66 65 66 67 67 68 69 67 68 68 68 68 70 69 69 68 68 69 68 68 70 69 68 69 68 68 67 67 66 66 67 68 69 69 69 67 67 67 69 70 71 71 72 71 70 69 71 73
72 72 72 72 71 71 70 70 69 69 68 66 66 65 65 65 65 66 67 68 67 67 67 67 67 67 68 69 68 68 68 67 67 66 69 68 69 69 68 68 68 68 67 67 69 70 69 70 70 70 67 68 69 71 71 71 71 71 69 69 71 73
72 72 71 74 72 71 70 70 71 71 69 69 67 65 65 65 66 66 68 69 69 67 67 66 66 67 67 67 67 67 67 66 66 66 66 68 68 67 67 66 67 70 70 70 71 71 71 73 71 69 70 70 70 71 72 71 71 71 70 69 70 72
73 73 72 73 71 70 69 69 68 67 67 71 67 66 66 66 66 66 68 69 68 66 66 67 67 67 67 66 65 66 66 66 67 67 67 67 68 66 66 66 66 66 68 68 68 68 70 71 70 69 71 72 71 71 71 70 71 71 70 69 69 71
74 73 73 72 70 69 68 67 67 67 68 70 66 66 67 66 66 67 67 68 69 68 67 66 66 65 66 65 65 66 66 66 65 66 66 66 66 66 65 65 66 66 67 67 68 69 68 69 72 70 71 71 72 71 70 71 72 71 70 69 69 70
75 75 74 72 70 69 68 67 67 67 68 67 67 67 66 67 66 67 67 68 68 68 67 67 66 66 65 66 66 65 66 65 65 65 66 66 65 65 65 65 66 66 66 65 66 68 68 67 69 72 71 71 73 70 70 71 72 72 71 70 69 69
73 73 73 72 71 69 69 68 68 67 67 67 67 67 67 67 68 67 68 67 67 67 68 66 67 67 66 65 65 65 65 65 66 66 65 65 64 65 65 67 66 66 66 65 65 66 67 67 66 70 74 72 71 71 71 70 73 72 72 71 70 69
73 72 71 71 70 69 69 70 68 67 67 68 67 67 66 67 67 67 67 67 66 67 67 66 65 64 65 64 64 64 65 65 65 65 65 64 65 64 65 65 66 66 65 65 65 66 69 66 66 67 69 73 71 72 72 71 73 72 72 71 70 70
72 71 70 69 69 68 69 68 68 68 68 66 65 66 67 65 66 67 67 66 66 67 66 66 65 65 64 64 66 65 65 65 65 65 64 63 63 63 63 64 64 64 66 66 66 66 66 67 66 67 67 70 71 69 70 72 70 71 71 71 71 70
71 70 71 70 70 70 69 69 69 68 67 66 66 65 65 65 66 67 66 65 66 67 66 66 66 64 64 65 65 63 64 64 64 64 63 63 63 62 63 63 64 64 65 65 66 68 67 65 66 67 66 68 69 71 71 71 72 71 70 71 70 70
69 69 69 69 69 70 71 70 69 70 67 66 65 65 65 65 66 66 66 67 67 67 66 67 65 65 65 64 64 63 64 65 63 62 63 64 63 63 62 63 64 65 63 65 66 66 65 64 65 66 67 67 67 67 67 69 69 70 72 71 71 70
69 68 68 69 69 68 68 69 69 70 68 66 66 65 65 65 67 67 67 67 67 66 66 66 66 67 65 65 65 64 63 64 63 62 62 63 62 63 63 64 62 64 65 62 64 64 64 63 64 65 66 66 66 65 66 66 68 68 72 70 70 71
68 69 68 68 67 67 68 67 66 67 70 67 67 67 67 67 66 66 66 66 68 68 66 66 66 65 64 65 65 64 64 64 63 63 62 62 62 63 63 62 61 63 64 63 63 63 62 62 65 66 64 66 65 64 64 64 66 68 68 69 69 70
68 68 67 67 67 67 67 66 65 67 66 67 68 68 67 66 66 66 65 67 68 68 68 67 66 66 64 65 64 64 62 63 63 63 63 64 63 62 62 63 63 63 63 63 63 63 63 61 63 64 64 64 66 64 64 65 66 65 66 68 69 72
66 67 66 67 67 65 65 65 64 64 66 65 66 66 66 65 66 65 67 66 67 67 67 67 66 66 65 64 63 63 62 63 63 63 62 62 62 62 62 62 63 63 63 63 64 63 62 63 62 62 62 63 65 65 66 65 66 66 65 66 67 68
66 67 67 66 65 64 64 63 63 65 64 64 66 65 65 65 66 66 67 68 66 67 66 66 66 65 65 67 64 63 63 63 63 62 62 62 62 63 64 63 62 62 63 63 62 63 63 62 61 59 61 62 62 64 65 66 65 65 66 66 67 68
66 66 66 66 66 65 64 64 64 64 63 63 65 65 63 65 66 67 66 64 65 66 64 64 68 65 65 65 65 64 64 63 63 62 62 63 63 64 63 63 63 61 63 61 60 62 62 60 58 57 57 58 59 61 64 63 65 66 66 67 67 68
66 66 66 67 65 66 65 66 64 62 65 62 64 65 65 65 66 65 63 64 64 64 65 66 65 64 67 66 64 64 64 64 64 64 62 61 62 61 62 62 61 61 60 61 61 62 62 61 58 59 58 56 55 55 58 60 62 64 65 66 67 68
66 66 66 66 66 65 65 66 67 67 66 67 65 65 65 63 63 65 65 65 64 64 65 65 66 67 66 64 63 62 62 63 63 63 62 62 60 60 60 61 60 60 61 58 60 62 63 61 60 58 55 55 56 54 54 55 58 62 64 64 65 67
66 66 66 66 67 66 67 66 65 65 66 64 64 62 61 61 63 64 64 63 64 65 66 66 64 64 65 64 63 63 62 62 62 62 63 61 61 61 61 61 60 60 60 59 58 60 61 62 62 62 57 55 54 53 53 55 58 59 61 62 64 66
65 65 66 66 66 66 66 65 63 62 61 59 58 59 58 60 60 61 61 62 66 66 65 65 65 66 66 64 63 63 61 61 62 61 62 61 62 61 61 61 62 62 60 60 59 59 59 62 61 61 61 59 59 54 55 57 57 53 60 61 62 65
65 65 66 66 66 66 64 64 63 63 62 61 60 60 60 61 61 60 63 63 63 63 64 64 63 63 62 63 62 62 62 61 61 62 63 61 60 60 61 62 62 60 61 60 60 57 58 59 60 60 60 60 60 60 59 56 53 54 54 57 59 60
65 66 66 66 66 66 64 63 63 63 63 61 60 61 62 61 62 63 62 63 63 62 63 63 63 63 63 63 62 62 61 61 62 63 63 60 60 60 61 61 61 59 60 60 59 58 57 58 57 56 59 58 59 60 59 60 59 55 53 54 55 58
65 66 65 66 66 65 65 64 64 64 62 62 63 62 62 63 62 63 61 60 62 61 62 63 63 62 61 63 63 61 59 60 60 61 63 62 60 60 59 58 59 59 58 59 59 58 57 57 58 57 57 57 57 57 58 58 58 58 55 53 53 55
65 66 66 66 65 64 65 64 63 62 62 62 63 62 62 61 61 60 61 60 60 61 60 61 61 61 60 60 60 60 61 60 59 61 61 60 59 59 59 59 57 58 58 58 57 58 57 56 58 57 57 57 56 56 57 57 58 57 58 57 54 54
66 67 66 66 65 65 65 64 64 63 64 63 62 61 61 60 60 59 61 61 60 60 60 60 60 61 61 61 60 61 59 60 61 61 61 60 59 59 58 58 59 58 58 57 57 57 58 57 57 57 57 56 56 56 55 55 54 57 57 54 53 54
66 67 66 66 64 64 65 63 62 63 64 64 63 62 61 60 60 60 60 59 59 59 60 60 59 59 59 59 59 59 59 59 59 59 60 58 59 61 60 60 58 58 58 57 57 58 56 56 55 56 57 57 56 57 56 56 56 56 55 54 55 53
66 66 66 65 64 63 64 63 63 64 64 64 63 63 62 61 60 61 60 59 60 59 58 59 58 60 58 59 59 59 58 58 59 58 58 60 59 59 58 58 58 57 57 57 55 55 54 54 55 55 54 55 56 57 57 56 57 55 54 55 53 51
67 66 65 64 64 63 64 63 62 64 65 64 63 63 62 62 61 61 61 60 61 60 60 60 59 59 60 60 59 58 59 58 58 58 59 58 58 59 59 59 58 57 57 55 56 55 54 54 54 54 55 55 56 56 55 56 55 56 55 54 52 52
61 64 64 64 63 62 62 62 62 63 64 64 63 63 62 63 62 62 61 61 61 61 60 60 60 61 61 60 59 58 59 59 58 57 58 59 61 57 58 59 59 57 57 57 57 56 55 55 57 55 54 54 56 55 55 56 54 56 56 55 54 53
59 59 62 63 63 62 63 62 61 63 64 64 64 64 62 63 62 62 62 62 61 61 61 61 61 61 61 61 60 59 59 58 58 58 59 59 59 58 57 58 57 56 57 60 56 55 55 54 54 55 55 54 56 54 55 55 56 55 55 55 56 54
59 59 59 60 61 63 64 64 63 63 63 63 63 63 62 62 62 62 63 63 61 62 62 62 62 62 62 60 60 60 60 59 58 58 58 59 59 58 56 58 57 55 56 58 56 56 55 55 55 54 53 54 54 54 54 54 55 55 54 54 56 55

ECMWFFLT2_sfc_temp_036.txt.gz
Temp
71 71 72 72 72 72 73 74 74 74 74 74 74 74 74 74 74 75 74 73 71 69 69 71 71 71 74 71 72 73 74 74 74 74 74 74 74 74 74 73 72 72 72 72 72 72 72 72 72 72 72 72 72 65 66 67 69 68 68 67 68 68
70 71 71 71 72 72 73 73 71 71 71 72 73 73 71 70 73 69 73 70 68 70 68 68 69 73 71 72 72 73 74 74 74 74 74 74 74 73 73 73 72 72 72 71 71 66 65 68 69 70 72 73 66 65 66 67 68 68 68 67 68 70
71 71 71 71 71 72 71 70 70 70 71 72 73 71 69 70 66 67 67 67 68 68 68 68 68 72 71 73 72 73 74 74 74 74 73 73 73 73 73 72 72 71 71 71 68 64 63 63 64 70 70 66 63 65 66 68 68 68 67 68 67 72
71 70 70 70 70 70 69 69 69 69 68 68 67 68 67 67 66 66 67 66 66 68 67 66 74 75 74 70 71 72 73 74 74 74 74 72 73 73 73 73 72 71 70 69 64 64 64 63 63 64 64 64 64 65 67 68 68 68 67 70 68 73
71 70 70 70 70 69 69 69 68 68 67 66 65 65 66 65 66 66 65 66 66 67 66 65 65 68 67 68 67 68 69 68 68 68 71 66 68 69 70 68 67 67 63 64 64 64 64 65 64 65 64 64 66 66 67 68 69 68 68 69 69 72
71 71 70 69 69 70 70 68 67 67 66 65 64 64 65 65 65 66 65 66 67 65 65 65 65 66 67 67 67 67 67 67 67 67 68 66 67 67 66 66 66 65 63 63 64 64 64 65 65 64 64 64 65 65 66 68 69 69 68 67 69 73
71 70 69 70 70 70 68 68 67 67 66 64 64 64 64 64 65 65 65 67 65 64 64 64 65 65 66 65 66 66 66 66 67 67 68 67 66 66 66 66 65 65 64 64 65 65 64 65 64 65 64 65 66 66 66 68 69 69 68 68 70 73
70 70 69 71 70 68 68 68 68 70 67 67 65 64 63 64 65 65 67 67 67 65 65 65 65 64 66 65 65 65 65 65 66 66 67 67 65 65 65 65 64 65 66 66 66 66 66 67 66 65 65 66 66 65 67 67 68 68 68 68 69 72
71 71 70 70 69 68 68 68 68 67 65 69 65 64 64 64 64 65 66 67 67 65 64 66 65 65 64 64 64 64 65 65 65 66 66 65 65 64 64 64 64 64 64 65 64 64 65 65 64 64 65 66 66 65 67 67 67 68 68 67 68 70
71 71 70 70 68 68 67 67 66 67 66 68 64 64 64 64 64 65 65 66 67 65 65 64 64 65 64 63 64 65 66 66 65 65 66 65 64 64 63 63 63 64 65 65 66 65 65 65 66 65 64 65 66 66 67 67 67 67 67 67 67 69
72 72 70 69 68 67 67 67 66 66 67 65 65 66 65 65 64 65 65 66 66 66 65 65 64 64 64 63 63 64 64 65 65 65 64 64 64 64 63 63 64 64 63 64 65 65 65 65 64 67 67 67 67 66 67 67 68 68 67 67 67 68
71 71 70 69 69 67 67 67 67 66 65 65 66 64 64 64 67 65 66 65 65 66 66 64 65 64 64 63 63 63 63 64 64 64 63 64 64 63 63 64 64 64 64 64 63 63 64 64 63 65 67 68 66 66 66 66 68 68 68 67 67 68
71 71 69 69 68 67 66 67 66 66 65 67 66 65 65 65 65 65 65 65 66 66 65 63 62 63 64 63 63 63 63 63 63 64 63 63 63 63 63 63 63 65 63 63 64 64 66 64 64 64 65 68 67 68 66 68 67 67 68 68 67 67
70 69 69 67 67 66 66 66 66 65 67 65 65 64 65 65 65 66 65 65 65 65 64 63 63 63 64 62 63 63 63 64 65 64 63 62 62 62 62 62 62 62 64 63 63 63 63 64 64 64 64 66 66 66 67 66 66 67 66 67 68 67
69 68 69 67 67 66 66 66 66 65 65 65 65 64 64 64 65 65 65 64 65 65 64 64 64 62 62 63 63 63 64 64 64 64 63 62 62 62 61 61 62 61 61 62 62 64 63 62 63 64 63 65 65 66 66 66 66 66 68 66 66 66
67 67 67 67 66 66 66 66 66 67 64 63 63 64 63 63 65 65 64 64 65 65 64 64 64 63 63 63 63 63 64 64 63 64 63 63 62 60 60 61 62 61 60 61 63 62 61 61 62 63 63 63 63 64 64 64 65 67 67 67 66 66
67 66 66 66 66 66 66 66 66 66 64 63 62 62 62 63 65 65 64 64 64 65 64 64 63 64 63 63 63 63 64 64 63 63 64 64 62 62 61 61 60 62 61 60 61 62 61 61 62 62 62 62 62 62 64 64 64 65 68 66 66 66
67 67 66 66 66 65 66 65 65 64 65 62 62 62 63 64 64 63 64 64 64 64 64 63 63 63 63 63 63 63 62 63 62 62 62 63 63 64 62 61 61 62 62 61 61 60 59 60 63 63 61 62 62 62 62 63 64 65 65 66 64 65
67 66 65 66 66 65 63 62 61 63 62 62 63 63 63 63 63 63 63 63 64 64 64 62 63 64 63 63 62 62 61 62 62 62 63 63 62 62 62 61 60 61 62 62 61 60 60 60 61 61 62 62 62 61 61 62 63 62 63 64 66 67
65 65 65 64 64 63 63 62 62 61 62 61 61 62 62 62 61 62 63 63 62 63 64 63 63 62 62 62 61 61 61 62 62 62 62 62 60 61 61 61 60 61 61 61 62 61 61 60 59 59 61 60 61 61 62 63 64 64 62 63 64 64
64 64 65 63 62 62 61 60 60 60 60 60 62 61 62 61 61 62 62 63 63 62 61 62 63 62 61 63 61 60 61 61 61 62 61 60 60 61 61 61 60 61 60 61 62 62 61 60 60 59 59 59 59 60 63 63 64 63 64 64 64 64
63 63 64 64 63 61 59 61 61 61 61 60 61 61 60 60 61 62 61 61 61 61 60 61 61 60 61 61 60 60 60 61 63 62 61 60 60 62 60 59 59 58 60 61 60 61 60 59 57 57 57 55 56 58 61 62 62 63 64 64 64 66
63 63 63 63 62 63 61 61 61 59 63 58 60 60 61 61 62 61 60 60 59 59 60 61 61 62 61 61 59 59 59 60 61 61 59 59 58 59 59 59 59 59 59 60 61 62 61 59 56 57 56 55 52 54 56 57 59 61 62 64 64 65
63 63 63 63 63 61 62 60 62 62 61 62 61 60 60 59 60 61 61 61 60 60 61 61 61 62 62 60 59 58 58 59 60 59 59 58 57 58 59 59 60 59 59 58 60 60 62 59 59 57 56 55 55 53 52 54 56 60 62 62 64 64
64 63 62 62 62 62 63 62 62 61 62 61 60 59 58 58 59 61 60 60 60 61 62 61 60 61 62 59 58 58 58 57 58 59 59 58 57 58 58 58 59 59 58 57 58 60 62 62 60 61 57 55 52 50 51 52 56 58 60 60 62 64
63 62 62 61 63 64 63 62 61 60 58 57 56 56 56 57 58 58 59 60 60 61 61 59 60 61 61 60 59 58 58 59 59 59 59 57 57 57 57 58 58 58 57 57 58 58 59 61 61 60 59 57 55 53 52 55 54 52 56 58 59 62
63 62 62 62 63 64 62 62 62 61 60 59 58 56 56 57 57 58 58 58 59 59 59 60 58 59 59 60 59 59 59 59 59 58 60 58 57 57 58 58 59 58 58 58 57 56 58 59 58 58 59 59 59 58 56 55 53 52 52 55 57 57
62 62 63 62 63 64 63 60 60 59 60 58 58 58 57 57 57 58 58 58 58 58 58 59 59 58 59 60 60 59 58 58 58 59 59 57 57 57 58 58 58 57 57 57 56 57 57 57 54 55 59 57 58 59 57 57 56 54 50 53 55 55
62 62 62 62 63 62 63 61 60 60 58 58 58 59 58 58 58 58 56 56 57 57 57 58 58 58 57 59 60 58 56 57 57 58 59 58 57 58 56 56 56 57 56 56 56 55 55 54 54 56 58 57 58 57 56 57 57 57 53 50 50 53
61 62 62 61 63 62 62 61 60 59 58 57 59 58 58 57 57 56 56 56 56 57 57 56 56 56 57 58 58 58 56 57 56 58 58 55 55 56 56 55 54 55 55 56 54 55 54 53 54 54 55 56 55 54 55 57 57 56 56 55 53 53
62 62 62 61 62 62 62 62 61 60 59 58 58 58 57 57 56 55 57 55 56 56 56 56 56 55 56 56 57 58 57 57 57 58 57 57 55 55 55 55 55 55 55 54 54 54 54 53 54 54 54 53 52 53 54 52 53 53 52 51 50 52
62 62 61 62 61 62 61 61 61 61 60 60 59 59 59 57 57 57 56 56 55 56 55 56 55 55 56 56 57 56 56 56 56 55 55 56 56 56 56 55 55 54 53 53 54 55 53 53 53 53 52 52 54 53 53 53 53 53 53 53 52 51
62 62 62 61 62 61 61 61 62 62 61 61 60 60 59 57 57 57 56 56 55 55 56 56 55 57 55 55 56 56 56 56 56 56 55 55 54 55 55 55 55 53 53 53 52 53 52 51 51 53 52 51 52 54 53 52 52 52 52 52 51 49
59 61 62 61 62 62 61 61 63 63 63 61 59 59 59 58 57 57 57 57 57 57 56 57 56 56 57 56 55 56 55 54 54 54 55 54 54 55 55 55 54 54 53 52 52 51 51 51 51 50 51 52 52 52 51 52 52 53 51 50 49 50
59 59 60 61 62 62 61 60 62 63 63 61 61 60 59 59 58 57 57 58 57 56 57 57 57 58 56 56 55 55 55 54 55 54 54 54 56 55 55 56 55 53 52 52 52 53 51 52 54 52 50 51 53 51 51 52 52 53 53 51 50 50
60 59 59 61 62 62 60 61 61 62 62 62 62 61 59 59 58 58 58 58 57 57 58 57 57 57 57 57 56 56 56 55 54 54 54 53 53 55 54 54 53 53 53 55 53 52 50 50 51 50 50 50 52 51 51 51 52 51 51 52 52 49
58 59 59 58 58 59 61 60 60 62 61 61 61 60 60 60 60 59 59 58 58 58 57 58 59 58 57 55 56 57 56 55 55 54 54 54 53 52 53 54 53 52 52 52 53 52 51 52 50 50 49 50 50 50 51 50 51 51 51 50 52 51